Weather History for Alma, GA

Change the Weather History Date:

Saturday, January 19, 2013

  Actual Average Record
Temperature  
Mean Temperature 53 °F 51 °F  
Max Temperature 68 °F 62 °F 81 °F (2001)
Min Temperature 37 °F 40 °F 14 °F (1957)
Degree Days  
Heating Degree Days 12 14  
Month to date heating degree days 136 284  
Since 1 July heating degree days 730 924  
Cooling Degree Days 0 0  
Month to date cooling degree days 19 0  
Year to date cooling degree days 19 0  
Growing Degree Days 2 (Base 50)    
Moisture  
Dew Point 36 °F    
Average Humidity 69    
Maximum Humidity 93    
Minimum Humidity 44    
Precipitation  
Precipitation 0.00 in 0.14 in 2.66 in (1991)
Month to date precipitation 0.19 2.51  
Year to date precipitation 0.19 2.51  
Snow  
Snow 0.00 in 0.00 in 0.00 in ()
Month to date snowfall 0.0 0.0  
Since 1 July snowfall 0.0 0.1  
Snow Depth 0.00 in    
Sea Level Pressure  
Sea Level Pressure 30.34 in    
Wind  
Wind Speed 3 mph (NNE)    
Max Wind Speed 9 mph    
Max Gust Speed 15 mph    
Visibility 10 miles    
Events      
T = Trace of Precipitation, MM = Missing Value Source: NWS Daily Summary

Daily Weather History Graph

Daily Weather History Graph

Search for Another Location

Airport:

Trip Planner

Search our weather history database for the weather conditions in past years. The results will help you decide how hot, cold, wet, or windy it might be!

Date:

Astronomy

Jan. 19, 2013 Rise Set
Actual Time 7:28 AM EST 5:53 PM EST
Civil Twilight 7:02 AM EST 6:19 PM EST
Nautical Twilight 6:33 AM EST 6:48 PM EST
Astronomical Twilight 6:03 AM EST 7:18 PM EST
Moon 12:14 PM EST (1/19) 1:07 AM EST (1/19)
Length of Visible Light 11h 16m
Length of Day
10h 24m
First Quarter, 57% of the Moon is Illuminated
Jan 19
First Quarter
Jan 26
Full
Feb 3
Last Quarter
Feb 10
New
Feb 17
First Quarter

Hourly Weather History & Observations

Time (EST) Temp. Windchill Dew Point Humidity Pressure Visibility Wind Dir Wind Speed Gust Speed Precip Events Conditions
12:53 AM 41.0 °F 38.0 °F 25.0 °F 53% 30.42 in 10.0 mi Variable 4.6 mph - N/A   Clear
1:53 AM 41.0 °F 38.0 °F 25.0 °F 53% 30.42 in 10.0 mi NNE 4.6 mph - N/A   Clear
2:53 AM 41.0 °F - 25.0 °F 53% 30.40 in 10.0 mi Calm Calm - N/A   Clear
3:53 AM 39.9 °F 36.7 °F 25.0 °F 55% 30.40 in 10.0 mi NE 4.6 mph - N/A   Clear
4:53 AM 39.9 °F 37.8 °F 26.1 °F 58% 30.39 in 10.0 mi NNE 3.5 mph - N/A   Clear
5:53 AM 39.9 °F - 26.1 °F 58% 30.40 in 10.0 mi Calm Calm - N/A   Clear
6:53 AM 39.9 °F 37.8 °F 26.1 °F 58% 30.40 in 10.0 mi Variable 3.5 mph - N/A   Clear
7:53 AM 41.0 °F 39.0 °F 27.0 °F 57% 30.41 in 10.0 mi Variable 3.5 mph - N/A   Clear
8:53 AM 45.0 °F 41.8 °F 28.9 °F 53% 30.42 in 10.0 mi Variable 5.8 mph - N/A   Clear
9:53 AM 50.0 °F - 32.0 °F 50% 30.43 in 10.0 mi NNE 9.2 mph - N/A   Mostly Cloudy
10:53 AM 54.0 °F - 35.1 °F 49% 30.43 in 10.0 mi Variable 5.8 mph - N/A   Mostly Cloudy
11:53 AM 57.9 °F - 37.0 °F 46% 30.39 in 10.0 mi Variable 4.6 mph - N/A   Partly Cloudy
12:53 PM 59.0 °F - 39.0 °F 48% 30.34 in 10.0 mi East 3.5 mph - N/A   Mostly Cloudy
1:53 PM 64.0 °F - 42.1 °F 45% 30.29 in 10.0 mi Variable 3.5 mph - N/A   Scattered Clouds
2:53 PM 64.9 °F - 43.0 °F 45% 30.27 in 10.0 mi Calm Calm - N/A   Clear
3:53 PM 66.9 °F - 46.0 °F 47% 30.25 in 10.0 mi Variable 3.5 mph - N/A   Clear
4:53 PM 64.9 °F - 46.0 °F 50% 30.25 in 8.0 mi North 4.6 mph - N/A   Scattered Clouds
5:53 PM 59.0 °F - 46.9 °F 64% 30.25 in 10.0 mi Calm Calm - N/A   Mostly Cloudy
6:53 PM 52.0 °F - 46.9 °F 83% 30.25 in 10.0 mi Calm Calm - N/A   Clear
7:53 PM 48.9 °F - 46.0 °F 90% 30.27 in 10.0 mi Calm Calm - N/A   Clear
8:53 PM 48.0 °F - 45.0 °F 89% 30.27 in 8.0 mi Calm Calm - N/A   Partly Cloudy
9:53 PM 48.9 °F - 46.0 °F 90% 30.27 in 7.0 mi Calm Calm - N/A   Clear
10:53 PM 46.9 °F - 44.1 °F 90% 30.25 in 5.0 mi Calm Calm - N/A   Clear